�������l�o���
Date,Time,MP-1(��Sv/h),MP-2(��Sv/h),MP-3(��Sv/h),MP-4(��Sv/h),MP-5(��Sv/h),MP-6(��Sv/h),MP-7(��Sv/h),MP-8(��Sv/h),����,����(m/s),���J
2023/07/23,00:00,0.517,0.792,0.486,0.948,0.699,0.319,0.562,0.530,��,4.3,��
2023/07/23,00:10,0.517,0.790,0.487,0.947,0.701,0.320,0.563,0.531,��쐼,4.1,��
2023/07/23,00:20,0.520,0.792,0.485,0.945,0.700,0.321,0.563,0.530,��쐼,3.2,��
2023/07/23,00:30,0.518,0.793,0.487,0.947,0.700,0.320,0.565,0.529,��쐼,2.9,��
2023/07/23,00:40,0.519,0.792,0.487,0.946,0.701,0.319,0.564,0.531,��쐼,2.6,��
2023/07/23,00:50,0.517,0.793,0.486,0.946,0.702,0.320,0.563,0.531,��쐼,2.3,��
2023/07/23,01:00,0.518,0.792,0.488,0.948,0.702,0.320,0.564,0.530,��,2.0,��
2023/07/23,01:10,0.517,0.791,0.487,0.946,0.699,0.321,0.564,0.529,��쐼,2.0,��
2023/07/23,01:20,0.516,0.793,0.487,0.948,0.700,0.321,0.563,0.531,��,1.9,��
2023/07/23,01:30,0.517,0.793,0.486,0.947,0.701,0.320,0.564,0.530,��쓌,1.5,��
2023/07/23,01:40,0.519,0.792,0.489,0.947,0.700,0.319,0.564,0.531,��쓌,1.7,��
2023/07/23,01:50,0.519,0.792,0.487,0.947,0.702,0.321,0.563,0.530,��,2.5,��
2023/07/23,02:00,0.520,0.793,0.488,0.946,0.701,0.320,0.564,0.531,��,3.4,��
2023/07/23,02:10,0.518,0.794,0.487,0.947,0.700,0.322,0.563,0.531,��,4.2,��
2023/07/23,02:20,0.520,0.792,0.487,0.947,0.701,0.322,0.562,0.531,��쓌,4.5,��
2023/07/23,02:30,0.516,0.793,0.486,0.946,0.701,0.321,0.563,0.532,��쓌,4.0,��
2023/07/23,02:40,0.519,0.793,0.485,0.947,0.700,0.320,0.565,0.533,��,3.6,��
2023/07/23,02:50,0.519,0.794,0.487,0.949,0.700,0.321,0.565,0.530,��,4.3,��
2023/07/23,03:00,0.518,0.792,0.486,0.947,0.699,0.321,0.565,0.530,��,4.9,��
2023/07/23,03:10,0.519,0.793,0.487,0.946,0.701,0.319,0.566,0.532,��,4.9,��
2023/07/23,03:20,0.519,0.794,0.487,0.947,0.702,0.322,0.566,0.531,��,5.0,��
2023/07/23,03:30,0.518,0.791,0.487,0.948,0.702,0.321,0.566,0.531,��쓌,5.1,��
2023/07/23,03:40,0.517,0.792,0.486,0.949,0.701,0.320,0.563,0.531,��쓌,5.2,��
2023/07/23,03:50,0.518,0.794,0.487,0.947,0.703,0.321,0.564,0.532,��쓌,4.8,��
2023/07/23,04:00,0.519,0.794,0.488,0.948,0.699,0.319,0.564,0.531,��쓌,3.7,��
2023/07/23,04:10,0.518,0.790,0.487,0.947,0.700,0.319,0.566,0.531,��,3.9,��
2023/07/23,04:20,0.518,0.791,0.485,0.947,0.700,0.320,0.565,0.530,��쓌,4.4,��
2023/07/23,04:30,0.518,0.795,0.488,0.949,0.700,0.320,0.568,0.532,��쓌,4.9,��
2023/07/23,04:40,0.517,0.793,0.486,0.948,0.700,0.320,0.566,0.532,��,4.1,��
2023/07/23,04:50,0.516,0.791,0.487,0.948,0.702,0.321,0.567,0.530,��,5.3,��
2023/07/23,05:00,0.518,0.791,0.487,0.947,0.701,0.319,0.566,0.531,��쓌,5.5,��
2023/07/23,05:10,0.517,0.791,0.484,0.948,0.700,0.319,0.565,0.533,��쓌,5.4,��
2023/07/23,05:20,0.517,0.791,0.486,0.947,0.701,0.319,0.566,0.531,��쓌,5.2,��
2023/07/23,05:30,0.517,0.791,0.487,0.947,0.698,0.320,0.565,0.531,��쓌,4.4,��
2023/07/23,05:40,0.516,0.791,0.487,0.948,0.700,0.320,0.566,0.531,��쓌,4.0,��
2023/07/23,05:50,0.516,0.791,0.486,0.948,0.698,0.320,0.566,0.531,��쓌,4.6,��
2023/07/23,06:00,0.516,0.791,0.486,0.948,0.701,0.320,0.567,0.531,��쓌,5.2,��
2023/07/23,06:10,0.518,0.792,0.487,0.947,0.701,0.320,0.567,0.530,��,3.8,��
2023/07/23,06:20,0.517,0.791,0.485,0.949,0.701,0.320,0.566,0.530,��쓌,5.1,��
2023/07/23,06:30,0.518,0.793,0.486,0.946,0.700,0.320,0.567,0.531,��쓌,6.4,��
2023/07/23,06:40,0.519,0.792,0.485,0.946,0.700,0.319,0.567,0.531,��쓌,6.9,��
2023/07/23,06:50,0.519,0.791,0.485,0.948,0.701,0.320,0.566,0.532,��쓌,6.8,��
2023/07/23,07:00,0.516,0.792,0.486,0.946,0.699,0.320,0.566,0.533,��쓌,6.7,��
2023/07/23,07:10,0.517,0.791,0.487,0.947,0.703,0.319,0.567,0.531,��쓌,7.7,��
2023/07/23,07:20,0.518,0.790,0.485,0.949,0.701,0.320,0.567,0.531,��쓌,6.6,��
2023/07/23,07:30,0.516,0.790,0.486,0.947,0.700,0.321,0.565,0.531,��쓌,6.3,��
2023/07/23,07:40,0.518,0.790,0.487,0.947,0.699,0.320,0.567,0.529,��쓌,6.1,��
2023/07/23,07:50,0.520,0.791,0.486,0.945,0.700,0.319,0.564,0.531,��쓌,6.6,��
2023/07/23,08:00,0.517,0.791,0.485,0.947,0.700,0.319,0.565,0.532,��쓌,6.1,��
2023/07/23,08:10,0.516,0.790,0.485,0.946,0.700,0.321,0.565,0.529,��쓌,6.9,��
2023/07/23,08:20,0.516,0.789,0.487,0.947,0.699,0.320,0.564,0.529,��쓌,6.8,��
2023/07/23,08:30,0.516,0.790,0.484,0.948,0.701,0.320,0.566,0.529,��쓌,6.2,��
2023/07/23,08:40,0.518,0.790,0.485,0.946,0.702,0.319,0.567,0.528,��쓌,6.6,��
2023/07/23,08:50,0.516,0.790,0.487,0.946,0.700,0.318,0.566,0.530,��쓌,6.6,��
2023/07/23,09:00,0.519,0.792,0.485,0.946,0.701,0.320,0.566,0.529,��쓌,7.0,��
2023/07/23,09:10,0.518,0.793,0.485,0.947,0.703,0.321,0.565,0.530,��쓌,6.2,��
2023/07/23,09:20,0.520,0.792,0.485,0.949,0.702,0.319,0.567,0.530,��쓌,6.9,��
2023/07/23,09:30,0.519,0.794,0.483,0.948,0.700,0.320,0.566,0.530,��쓌,7.1,��
2023/07/23,09:40,0.520,0.793,0.486,0.951,0.701,0.320,0.567,0.530,��쓌,7.0,��
2023/07/23,09:50,0.519,0.794,0.482,0.949,0.701,0.320,0.565,0.530,��쓌,7.6,��
2023/07/23,10:00,0.521,0.795,0.483,0.949,0.700,0.320,0.564,0.531,��쓌,8.1,��
2023/07/23,10:10,0.519,0.796,0.486,0.948,0.702,0.319,0.565,0.531,��쓌,7.4,��
2023/07/23,10:20,0.521,0.794,0.486,0.948,0.703,0.319,0.563,0.530,��쓌,8.5,��
2023/07/23,10:30,0.520,0.794,0.487,0.951,0.704,0.320,0.565,0.531,��쓌,7.7,��
2023/07/23,10:40,0.519,0.796,0.487,0.950,0.702,0.321,0.565,0.529,��쓌,8.1,��
2023/07/23,10:50,0.520,0.793,0.487,0.947,0.705,0.320,0.564,0.531,��쓌,8.5,��
2023/07/23,11:00,0.520,0.796,0.487,0.949,0.704,0.321,0.564,0.531,��쓌,8.0,��
2023/07/23,11:10,0.520,0.797,0.485,0.949,0.704,0.320,0.564,0.530,��쓌,8.4,��
2023/07/23,11:20,0.521,0.796,0.487,0.947,0.705,0.320,0.564,0.531,��쓌,7.5,��
2023/07/23,11:30,0.522,0.795,0.486,0.946,0.703,0.321,0.565,0.531,��쓌,8.0,��
2023/07/23,11:40,0.522,0.795,0.488,0.950,0.706,0.320,0.564,0.530,��쓌,8.9,��
2023/07/23,11:50,0.521,0.797,0.486,0.950,0.705,0.322,0.566,0.532,��쓌,8.5,��
2023/07/23,12:00,0.522,0.797,0.487,0.948,0.706,0.320,0.564,0.532,��쓌,7.1,��
2023/07/23,12:10,0.522,0.798,0.489,0.951,0.705,0.321,0.565,0.532,��쓌,7.9,��
2023/07/23,12:20,0.524,0.798,0.489,0.946,0.707,0.320,0.566,0.531,��쓌,8.0,��
2023/07/23,12:30,0.520,0.795,0.489,0.950,0.707,0.321,0.564,0.531,��쓌,7.3,��
2023/07/23,12:40,0.521,0.799,0.488,0.950,0.706,0.322,0.567,0.532,��쓌,8.6,��
2023/07/23,12:50,0.522,0.800,0.489,0.949,0.708,0.321,0.565,0.532,��쓌,9.1,��
2023/07/23,13:00,0.523,0.798,0.488,0.948,0.708,0.321,0.564,0.531,��쓌,8.5,��
2023/07/23,13:10,0.524,0.798,0.488,0.950,0.707,0.322,0.565,0.532,��쓌,8.0,��
2023/07/23,13:20,0.523,0.801,0.489,0.952,0.709,0.322,0.564,0.532,��쓌,7.3,��
2023/07/23,13:30,0.524,0.799,0.489,0.951,0.706,0.322,0.564,0.533,��쓌,8.4,��
2023/07/23,13:40,0.522,0.799,0.489,0.950,0.707,0.321,0.565,0.533,��쓌,7.3,��
2023/07/23,13:50,0.524,0.801,0.489,0.951,0.707,0.322,0.564,0.533,��쓌,8.4,��
2023/07/23,14:00,0.522,0.798,0.488,0.952,0.707,0.321,0.565,0.533,��쓌,8.6,��
2023/07/23,14:10,0.524,0.800,0.488,0.951,0.707,0.322,0.565,0.533,��쓌,7.2,��
2023/07/23,14:20,0.524,0.800,0.488,0.952,0.709,0.321,0.564,0.535,��쓌,8.2,��
2023/07/23,14:30,0.523,0.799,0.488,0.952,0.709,0.321,0.565,0.534,��쓌,10.2,��
2023/07/23,14:40,0.523,0.801,0.489,0.953,0.708,0.322,0.564,0.532,��쓌,8.0,��
2023/07/23,14:50,0.522,0.799,0.489,0.952,0.709,0.322,0.564,0.533,��쓌,8.2,��
2023/07/23,15:00,0.525,0.801,0.489,0.955,0.710,0.322,0.567,0.532,��쓌,8.6,��
2023/07/23,15:10,0.524,0.800,0.490,0.954,0.710,0.322,0.565,0.532,��쓌,6.9,��
2023/07/23,15:20,0.524,0.802,0.489,0.953,0.709,0.322,0.564,0.534,��쓌,9.6,��
2023/07/23,15:30,0.524,0.802,0.488,0.953,0.710,0.321,0.565,0.533,��쓌,8.6,��
2023/07/23,15:40,0.526,0.800,0.488,0.954,0.709,0.322,0.565,0.534,��쓌,7.6,��
2023/07/23,15:50,0.524,0.800,0.490,0.955,0.710,0.320,0.565,0.533,��쓌,9.3,��
2023/07/23,16:00,0.523,0.802,0.489,0.954,0.709,0.321,0.564,0.532,��쓌,8.2,��
2023/07/23,16:10,0.525,0.802,0.488,0.954,0.710,0.322,0.566,0.531,��쓌,8.0,��
2023/07/23,16:20,0.525,0.804,0.490,0.955,0.709,0.323,0.567,0.531,��쓌,8.0,��
2023/07/23,16:30,0.525,0.800,0.488,0.954,0.710,0.322,0.567,0.534,��쓌,8.0,��
2023/07/23,16:40,0.524,0.802,0.488,0.953,0.712,0.323,0.568,0.533,��쓌,8.2,��
2023/07/23,16:50,0.522,0.801,0.489,0.957,0.711,0.322,0.565,0.532,��쓌,6.8,��
2023/07/23,17:00,0.525,0.801,0.488,0.956,0.711,0.321,0.565,0.532,��쓌,6.4,��
2023/07/23,17:10,0.525,0.802,0.488,0.954,0.710,0.321,0.564,0.532,��쓌,6.5,��
2023/07/23,17:20,0.525,0.800,0.488,0.958,0.709,0.321,0.565,0.531,��쓌,6.6,��
2023/07/23,17:30,0.524,0.800,0.488,0.956,0.711,0.323,0.564,0.531,��쓌,6.5,��
2023/07/23,17:40,0.524,0.802,0.491,0.956,0.710,0.322,0.566,0.531,��쓌,7.0,��
2023/07/23,17:50,0.524,0.800,0.489,0.955,0.711,0.322,0.565,0.532,��쓌,6.4,��
2023/07/23,18:00,0.524,0.801,0.489,0.957,0.711,0.324,0.565,0.532,��쓌,6.4,��
2023/07/23,18:10,0.525,0.803,0.490,0.956,0.712,0.321,0.565,0.532,��쓌,7.2,��
2023/07/23,18:20,0.523,0.799,0.487,0.959,0.711,0.322,0.565,0.532,��,6.1,��
2023/07/23,18:30,0.524,0.802,0.490,0.958,0.712,0.323,0.565,0.531,��쓌,6.4,��
2023/07/23,18:40,0.523,0.803,0.488,0.957,0.712,0.323,0.565,0.531,��쓌,7.0,��
2023/07/23,18:50,0.524,0.802,0.487,0.957,0.712,0.323,0.564,0.531,��쓌,6.4,��
2023/07/23,19:00,0.524,0.803,0.490,0.958,0.712,0.323,0.563,0.532,��,7.1,��
2023/07/23,19:10,0.522,0.803,0.490,0.958,0.710,0.324,0.565,0.532,��쓌,8.8,��
2023/07/23,19:20,0.525,0.801,0.491,0.957,0.712,0.323,0.564,0.532,��,7.0,��
2023/07/23,19:30,0.523,0.801,0.489,0.961,0.713,0.321,0.566,0.532,��쓌,7.9,��
2023/07/23,19:40,0.524,0.802,0.489,0.959,0.711,0.323,0.564,0.531,��쓌,7.8,��
2023/07/23,19:50,0.523,0.802,0.489,0.959,0.712,0.322,0.566,0.532,��,5.9,��
2023/07/23,20:00,0.525,0.802,0.490,0.959,0.711,0.323,0.566,0.533,��,5.2,��
2023/07/23,20:10,0.524,0.802,0.491,0.959,0.711,0.322,0.566,0.531,��,4.9,��
2023/07/23,20:20,0.524,0.801,0.489,0.960,0.710,0.322,0.566,0.533,��,4.5,��
2023/07/23,20:30,0.523,0.804,0.489,0.959,0.711,0.322,0.564,0.532,��쓌,5.0,��
2023/07/23,20:40,0.525,0.803,0.491,0.961,0.712,0.322,0.565,0.531,��쓌,5.4,��
2023/07/23,20:50,0.524,0.803,0.491,0.957,0.711,0.322,0.564,0.532,��쓌,4.8,��
2023/07/23,21:00,0.525,0.804,0.492,0.961,0.712,0.322,0.565,0.534,��,4.9,��
2023/07/23,21:10,0.525,0.802,0.490,0.961,0.712,0.322,0.565,0.533,��,5.8,��
2023/07/23,21:20,0.524,0.802,0.490,0.960,0.713,0.322,0.566,0.534,��,4.0,��
2023/07/23,21:30,0.525,0.803,0.491,0.960,0.711,0.323,0.565,0.533,��,3.4,��
2023/07/23,21:40,0.524,0.803,0.489,0.959,0.712,0.322,0.566,0.530,��,3.7,��
2023/07/23,21:50,0.526,0.802,0.492,0.961,0.711,0.322,0.566,0.534,��,3.9,��
2023/07/23,22:00,0.524,0.803,0.491,0.961,0.712,0.322,0.567,0.533,��쓌,4.6,��
2023/07/23,22:10,0.524,0.803,0.492,0.961,0.711,0.322,0.566,0.532,��쓌,3.6,��
2023/07/23,22:20,0.524,0.805,0.493,0.959,0.712,0.321,0.564,0.533,��,4.3,��
2023/07/23,22:30,0.526,0.804,0.492,0.962,0.712,0.322,0.566,0.533,��,4.9,��
2023/07/23,22:40,0.526,0.805,0.491,0.963,0.713,0.322,0.568,0.534,��,3.9,��
2023/07/23,22:50,0.527,0.804,0.491,0.962,0.712,0.321,0.566,0.533,��,4.1,��
2023/07/23,23:00,0.525,0.802,0.491,0.962,0.711,0.322,0.565,0.533,��,5.0,��
2023/07/23,23:10,0.524,0.805,0.490,0.960,0.713,0.321,0.565,0.535,��,5.9,��
2023/07/23,23:20,0.525,0.803,0.493,0.960,0.711,0.322,0.565,0.533,��,5.8,��
2023/07/23,23:30,0.523,0.803,0.491,0.960,0.710,0.322,0.567,0.533,��,5.6,��
2023/07/23,23:40,0.526,0.805,0.490,0.961,0.712,0.322,0.566,0.534,��,5.3,��
2023/07/23,23:50,0.524,0.802,0.490,0.963,0.713,0.321,0.566,0.533,��,5.1,��
